Year,Month,Day,Hour,Minute,Value (Times are PST for temperature in C)
2009,07,22,00,00,15.70
2009,07,22,00,01,15.60
2009,07,22,00,02,15.60
2009,07,22,00,03,15.60
2009,07,22,00,04,15.60
2009,07,22,00,05,15.60
2009,07,22,00,06,15.60
2009,07,22,00,07,15.60
2009,07,22,00,08,15.60
2009,07,22,00,09,15.50
2009,07,22,00,10,15.50
2009,07,22,00,11,15.50
2009,07,22,00,12,15.50
2009,07,22,00,13,15.50
2009,07,22,00,14,15.50
2009,07,22,00,15,15.40
2009,07,22,00,16,15.40
2009,07,22,00,17,15.40
2009,07,22,00,18,15.40
2009,07,22,00,19,15.40
2009,07,22,00,20,15.40
2009,07,22,00,21,15.40
2009,07,22,00,22,15.30
2009,07,22,00,23,15.30
2009,07,22,00,24,15.30
2009,07,22,00,25,15.30
2009,07,22,00,26,15.30
2009,07,22,00,27,15.30
2009,07,22,00,28,15.30
2009,07,22,00,29,15.30
2009,07,22,00,30,15.30
2009,07,22,00,31,15.20
2009,07,22,00,32,15.20
2009,07,22,00,33,15.20
2009,07,22,00,34,15.20
2009,07,22,00,35,15.20
2009,07,22,00,36,15.10
2009,07,22,00,37,15.10
2009,07,22,00,38,15.10
2009,07,22,00,39,15.10
2009,07,22,00,40,15.00
2009,07,22,00,41,15.00
2009,07,22,00,42,15.00
2009,07,22,00,43,15.00
2009,07,22,00,44,15.00
2009,07,22,00,45,15.00
2009,07,22,00,46,15.00
2009,07,22,00,47,15.00
2009,07,22,00,48,15.00
2009,07,22,00,49,15.00
2009,07,22,00,50,15.00
2009,07,22,00,51,15.00
2009,07,22,00,52,15.00
2009,07,22,00,53,15.00
2009,07,22,00,54,15.00
2009,07,22,00,55,15.00
2009,07,22,00,56,15.00
2009,07,22,00,57,15.00
2009,07,22,00,58,15.00
2009,07,22,00,59,15.00
2009,07,22,01,00,15.00
2009,07,22,01,01,15.00
2009,07,22,01,02,15.00
2009,07,22,01,03,15.00
2009,07,22,01,04,15.00
2009,07,22,01,05,15.00
2009,07,22,01,06,15.00
2009,07,22,01,07,15.00
2009,07,22,01,08,14.90
2009,07,22,01,09,14.90
2009,07,22,01,10,14.90
2009,07,22,01,11,14.90
2009,07,22,01,12,14.90
2009,07,22,01,13,15.00
2009,07,22,01,14,15.00
2009,07,22,01,15,15.00
2009,07,22,01,16,15.00
2009,07,22,01,17,15.00
2009,07,22,01,18,15.00
2009,07,22,01,19,14.90
2009,07,22,01,20,14.90
2009,07,22,01,21,14.90
2009,07,22,01,22,14.90
2009,07,22,01,23,14.90
2009,07,22,01,24,14.90
2009,07,22,01,25,14.90
2009,07,22,01,26,14.90
2009,07,22,01,27,14.90
2009,07,22,01,28,14.90
2009,07,22,01,29,14.80
2009,07,22,01,30,14.80
2009,07,22,01,31,14.80
2009,07,22,01,32,14.80
2009,07,22,01,33,14.80
2009,07,22,01,34,14.80
2009,07,22,01,35,14.80
2009,07,22,01,36,14.70
2009,07,22,01,37,14.70
2009,07,22,01,38,14.70
2009,07,22,01,39,14.70
2009,07,22,01,40,14.70
2009,07,22,01,41,14.60
2009,07,22,01,42,14.60
2009,07,22,01,43,14.60
2009,07,22,01,44,14.60
2009,07,22,01,45,14.60
2009,07,22,01,46,14.60
2009,07,22,01,47,14.60
2009,07,22,01,48,14.60
2009,07,22,01,49,14.60
2009,07,22,01,50,14.60
2009,07,22,01,51,14.60
2009,07,22,01,52,14.60
2009,07,22,01,53,14.60
2009,07,22,01,54,14.60
2009,07,22,01,55,14.60
2009,07,22,01,56,14.60
2009,07,22,01,57,14.60
2009,07,22,01,58,14.60
2009,07,22,01,59,14.50
2009,07,22,02,00,14.50
2009,07,22,02,01,14.50
2009,07,22,02,02,14.50
2009,07,22,02,03,14.50
2009,07,22,02,04,14.50
2009,07,22,02,05,14.50
2009,07,22,02,06,14.40
2009,07,22,02,07,14.40
2009,07,22,02,08,14.40
2009,07,22,02,09,14.40
2009,07,22,02,10,14.40
2009,07,22,02,11,14.40
2009,07,22,02,12,14.40
2009,07,22,02,13,14.40
2009,07,22,02,14,14.40
2009,07,22,02,15,14.30
2009,07,22,02,16,14.30
2009,07,22,02,17,14.30
2009,07,22,02,18,14.30
2009,07,22,02,19,14.30
2009,07,22,02,20,14.30
2009,07,22,02,21,14.30
2009,07,22,02,22,14.30
2009,07,22,02,23,14.30
2009,07,22,02,24,14.20
2009,07,22,02,25,14.20
2009,07,22,02,26,14.20
2009,07,22,02,27,14.20
2009,07,22,02,28,14.20
2009,07,22,02,29,14.20
2009,07,22,02,30,14.10
2009,07,22,02,31,14.10
2009,07,22,02,32,14.10
2009,07,22,02,33,14.10
2009,07,22,02,34,14.10
2009,07,22,02,35,14.10
2009,07,22,02,36,14.10
2009,07,22,02,37,14.10
2009,07,22,02,38,14.10
2009,07,22,02,39,14.10
2009,07,22,02,40,14.20
2009,07,22,02,41,14.20
2009,07,22,02,42,14.20
2009,07,22,02,43,14.20
2009,07,22,02,44,14.20
2009,07,22,02,45,14.20
2009,07,22,02,46,14.20
2009,07,22,02,47,14.20
2009,07,22,02,48,14.20
2009,07,22,02,49,14.20
2009,07,22,02,50,14.20
2009,07,22,02,51,14.20
2009,07,22,02,52,14.20
2009,07,22,02,53,14.20
2009,07,22,02,54,14.20
2009,07,22,02,55,14.20
2009,07,22,02,56,14.30
2009,07,22,02,57,14.30
2009,07,22,02,58,14.30
2009,07,22,02,59,14.30
2009,07,22,03,00,14.30
2009,07,22,03,01,14.30
2009,07,22,03,02,14.30
2009,07,22,03,03,14.30
2009,07,22,03,04,14.30
2009,07,22,03,05,14.30
2009,07,22,03,06,14.30
2009,07,22,03,07,14.30
2009,07,22,03,08,14.30
2009,07,22,03,09,14.30
2009,07,22,03,10,14.30
2009,07,22,03,11,14.30
2009,07,22,03,12,14.40
2009,07,22,03,13,14.40
2009,07,22,03,14,14.40
2009,07,22,03,15,14.50
2009,07,22,03,16,14.70
2009,07,22,03,17,14.80
2009,07,22,03,18,14.80
2009,07,22,03,19,14.90
2009,07,22,03,20,14.90
2009,07,22,03,21,14.90
2009,07,22,03,22,14.90
2009,07,22,03,23,14.90
2009,07,22,03,24,14.90
2009,07,22,03,25,14.90
2009,07,22,03,26,14.90
2009,07,22,03,27,14.90
2009,07,22,03,28,14.90
2009,07,22,03,29,14.90
2009,07,22,03,30,14.90
2009,07,22,03,31,14.90
2009,07,22,03,32,14.90
2009,07,22,03,33,14.90
2009,07,22,03,34,15.00
2009,07,22,03,35,15.00
2009,07,22,03,36,15.00
2009,07,22,03,37,15.00
2009,07,22,03,38,15.00
2009,07,22,03,39,15.00
2009,07,22,03,40,15.00
2009,07,22,03,41,15.00
2009,07,22,03,42,15.00
2009,07,22,03,43,15.00
2009,07,22,03,44,15.00
2009,07,22,03,45,15.00
2009,07,22,03,46,15.00
2009,07,22,03,47,15.00
2009,07,22,03,48,15.00
2009,07,22,03,49,15.00
2009,07,22,03,50,15.00
2009,07,22,03,51,15.00
2009,07,22,03,52,15.00
2009,07,22,03,53,15.00
2009,07,22,03,54,15.00
2009,07,22,03,55,15.00
2009,07,22,03,56,15.00
2009,07,22,03,57,15.00
2009,07,22,03,58,15.00
2009,07,22,03,59,15.00
2009,07,22,04,00,15.00
2009,07,22,04,01,15.00
2009,07,22,04,02,15.20
2009,07,22,04,03,15.30
2009,07,22,04,04,15.30
2009,07,22,04,05,15.30
2009,07,22,04,06,15.40
2009,07,22,04,07,15.40
2009,07,22,04,08,15.40
2009,07,22,04,09,15.40
2009,07,22,04,10,15.40
2009,07,22,04,11,15.40
2009,07,22,04,12,15.40
2009,07,22,04,13,15.30
2009,07,22,04,14,15.30
2009,07,22,04,15,15.30
2009,07,22,04,16,15.30
2009,07,22,04,17,15.30
2009,07,22,04,18,15.30
2009,07,22,04,19,15.30
2009,07,22,04,20,15.30
2009,07,22,04,21,15.30
2009,07,22,04,22,15.30
2009,07,22,04,23,15.40
2009,07,22,04,24,15.70
2009,07,22,04,25,15.80
2009,07,22,04,26,15.80
2009,07,22,04,27,15.80
2009,07,22,04,28,15.80
2009,07,22,04,29,15.80
2009,07,22,04,30,15.90
2009,07,22,04,31,15.90
2009,07,22,04,32,15.90
2009,07,22,04,33,15.90
2009,07,22,04,34,15.90
2009,07,22,04,35,15.90
2009,07,22,04,36,15.90
2009,07,22,04,37,15.90
2009,07,22,04,38,15.90
2009,07,22,04,39,15.90
2009,07,22,04,40,16.00
2009,07,22,04,41,16.00
2009,07,22,04,42,16.10
2009,07,22,04,43,16.10
2009,07,22,04,44,16.10
2009,07,22,04,45,16.20
2009,07,22,04,46,16.40
2009,07,22,04,47,16.60
2009,07,22,04,48,16.80
2009,07,22,04,49,17.00
2009,07,22,04,50,17.10
2009,07,22,04,51,17.20
2009,07,22,04,52,17.30
2009,07,22,04,53,17.30
2009,07,22,04,54,17.30
2009,07,22,04,55,17.40
2009,07,22,04,56,17.50
2009,07,22,04,57,17.50
2009,07,22,04,58,17.60
2009,07,22,04,59,17.60
2009,07,22,05,00,17.60
2009,07,22,05,01,17.60
2009,07,22,05,02,17.70
2009,07,22,05,03,17.70
2009,07,22,05,04,17.70
2009,07,22,05,05,17.70
2009,07,22,05,06,17.80
2009,07,22,05,07,17.80
2009,07,22,05,08,17.80
2009,07,22,05,09,17.90
2009,07,22,05,10,17.80
2009,07,22,05,11,17.80
2009,07,22,05,12,17.80
2009,07,22,05,13,17.70
2009,07,22,05,14,17.70
2009,07,22,05,15,17.70
2009,07,22,05,16,17.70
2009,07,22,05,17,17.70
2009,07,22,05,18,17.70
2009,07,22,05,19,17.70
2009,07,22,05,20,17.70
2009,07,22,05,21,17.70
2009,07,22,05,22,17.60
2009,07,22,05,23,17.60
2009,07,22,05,24,17.60
2009,07,22,05,25,17.60
2009,07,22,05,26,17.60
2009,07,22,05,27,17.50
2009,07,22,05,28,17.50
2009,07,22,05,29,17.40
2009,07,22,05,30,17.30
2009,07,22,05,31,17.20
2009,07,22,05,32,17.10
2009,07,22,05,33,17.00
2009,07,22,05,34,16.90
2009,07,22,05,35,16.90
2009,07,22,05,36,16.90
2009,07,22,05,37,16.90
2009,07,22,05,38,16.90
2009,07,22,05,39,16.90
2009,07,22,05,40,16.90
2009,07,22,05,41,16.80
2009,07,22,05,42,16.80
2009,07,22,05,43,16.80
2009,07,22,05,44,16.70
2009,07,22,05,45,16.70
2009,07,22,05,46,16.70
2009,07,22,05,47,16.70
2009,07,22,05,48,16.70
2009,07,22,05,49,16.60
2009,07,22,05,50,16.60
2009,07,22,05,51,16.60
2009,07,22,05,52,16.60
2009,07,22,05,53,16.60
2009,07,22,05,54,16.60
2009,07,22,05,55,16.60
2009,07,22,05,56,16.60
2009,07,22,05,57,16.60
2009,07,22,05,58,16.60
2009,07,22,05,59,16.60
2009,07,22,06,00,16.60
2009,07,22,06,01,16.70
2009,07,22,06,02,16.80
2009,07,22,06,03,16.80
2009,07,22,06,04,16.80
2009,07,22,06,05,16.90
2009,07,22,06,06,16.90
2009,07,22,06,07,16.90
2009,07,22,06,08,16.90
2009,07,22,06,09,16.90
2009,07,22,06,10,16.90
2009,07,22,06,11,16.90
2009,07,22,06,12,17.00
2009,07,22,06,13,17.00
2009,07,22,06,14,17.10
2009,07,22,06,15,17.20
2009,07,22,06,16,17.30
2009,07,22,06,17,17.30
2009,07,22,06,18,17.30
2009,07,22,06,19,17.30
2009,07,22,06,20,17.40
2009,07,22,06,21,17.40
2009,07,22,06,22,17.50
2009,07,22,06,23,17.50
2009,07,22,06,24,17.60
2009,07,22,06,25,17.60
2009,07,22,06,26,17.60
2009,07,22,06,27,17.70
2009,07,22,06,28,17.70
2009,07,22,06,29,17.80
2009,07,22,06,30,17.80
2009,07,22,06,31,17.80
2009,07,22,06,32,17.80
2009,07,22,06,33,17.80
2009,07,22,06,34,17.80
2009,07,22,06,35,17.80
2009,07,22,06,36,17.80
2009,07,22,06,37,17.70
2009,07,22,06,38,17.70
2009,07,22,06,39,17.70
2009,07,22,06,40,17.70
2009,07,22,06,41,17.60
2009,07,22,06,42,17.60
2009,07,22,06,43,17.60
2009,07,22,06,44,17.60
2009,07,22,06,45,17.60
2009,07,22,06,46,17.60
2009,07,22,06,47,17.70
2009,07,22,06,48,17.70
2009,07,22,06,49,17.70
2009,07,22,06,50,17.70
2009,07,22,06,51,17.70
2009,07,22,06,52,17.70
2009,07,22,06,53,17.70
2009,07,22,06,54,17.70
2009,07,22,06,55,17.70
2009,07,22,06,56,17.70
2009,07,22,06,57,17.70
2009,07,22,06,58,17.70
2009,07,22,06,59,17.70
2009,07,22,07,00,17.70
2009,07,22,07,01,17.70
2009,07,22,07,02,17.70
2009,07,22,07,03,17.70
2009,07,22,07,04,17.70
2009,07,22,07,05,17.70
2009,07,22,07,06,17.70
2009,07,22,07,07,17.70
2009,07,22,07,08,17.70
2009,07,22,07,09,17.70
2009,07,22,07,10,17.70
2009,07,22,07,11,17.80
2009,07,22,07,12,17.80
2009,07,22,07,13,17.80
2009,07,22,07,14,17.80
2009,07,22,07,15,17.80
2009,07,22,07,16,17.80
2009,07,22,07,17,17.80
2009,07,22,07,18,17.90
2009,07,22,07,19,17.90
2009,07,22,07,20,17.90
2009,07,22,07,21,17.90
2009,07,22,07,22,17.90
2009,07,22,07,23,17.90
2009,07,22,07,24,17.90
2009,07,22,07,25,17.90
2009,07,22,07,26,17.90
2009,07,22,07,27,17.90
2009,07,22,07,28,17.90
2009,07,22,07,29,17.90
2009,07,22,07,30,17.90
2009,07,22,07,31,17.90
2009,07,22,07,32,17.90
2009,07,22,07,33,17.90
2009,07,22,07,34,17.90
2009,07,22,07,35,18.00
2009,07,22,07,36,18.00
2009,07,22,07,37,18.00
2009,07,22,07,38,18.00
2009,07,22,07,39,18.00
2009,07,22,07,40,18.00
2009,07,22,07,41,18.00
2009,07,22,07,42,18.10
2009,07,22,07,43,18.10
2009,07,22,07,44,18.10
2009,07,22,07,45,18.10
2009,07,22,07,46,18.10
2009,07,22,07,47,18.10
2009,07,22,07,48,18.10
2009,07,22,07,49,18.10
2009,07,22,07,50,18.10
2009,07,22,07,51,18.10
2009,07,22,07,52,18.10
2009,07,22,07,53,18.20
2009,07,22,07,54,18.20
2009,07,22,07,55,18.20
2009,07,22,07,56,18.30
2009,07,22,07,57,18.30
2009,07,22,07,58,18.30
2009,07,22,07,59,18.30
2009,07,22,08,00,18.30
2009,07,22,08,01,18.30
2009,07,22,08,02,18.20
2009,07,22,08,03,18.20
2009,07,22,08,04,18.20
2009,07,22,08,05,18.20
2009,07,22,08,06,18.20
2009,07,22,08,07,18.20
2009,07,22,08,08,18.20
2009,07,22,08,09,18.20
2009,07,22,08,10,18.20
2009,07,22,08,11,18.20
2009,07,22,08,12,18.20
2009,07,22,08,13,18.20
2009,07,22,08,14,18.20
2009,07,22,08,15,18.20
2009,07,22,08,16,18.20
2009,07,22,08,17,18.20
2009,07,22,08,18,18.30
2009,07,22,08,19,18.30
2009,07,22,08,20,18.30
2009,07,22,08,21,18.30
2009,07,22,08,22,18.30
2009,07,22,08,23,18.20
2009,07,22,08,24,18.20
2009,07,22,08,25,18.20
2009,07,22,08,26,18.30
2009,07,22,08,27,18.30
2009,07,22,08,28,18.30
2009,07,22,08,29,18.30
2009,07,22,08,30,18.30
2009,07,22,08,31,18.30
2009,07,22,08,32,18.30
2009,07,22,08,33,18.30
2009,07,22,08,34,18.30
2009,07,22,08,35,18.30
2009,07,22,08,36,18.30
2009,07,22,08,37,18.40
2009,07,22,08,38,18.30
2009,07,22,08,39,18.40
2009,07,22,08,40,18.40
2009,07,22,08,41,18.40
2009,07,22,08,42,18.40
2009,07,22,08,43,18.40
2009,07,22,08,44,18.50
2009,07,22,08,45,18.50
2009,07,22,08,46,18.50
2009,07,22,08,47,18.60
2009,07,22,08,48,18.60
2009,07,22,08,49,18.60
2009,07,22,08,50,18.70
2009,07,22,08,51,18.70
2009,07,22,08,52,18.70
2009,07,22,08,53,18.70
2009,07,22,08,54,18.80
2009,07,22,08,55,18.80
2009,07,22,08,56,18.90
2009,07,22,08,57,18.90
2009,07,22,08,58,18.90
2009,07,22,08,59,19.00
2009,07,22,09,00,19.00
2009,07,22,09,01,19.00
2009,07,22,09,02,19.10
2009,07,22,09,03,19.10
2009,07,22,09,04,19.10
2009,07,22,09,05,19.10
2009,07,22,09,06,19.10
2009,07,22,09,07,19.10
2009,07,22,09,08,19.10
2009,07,22,09,09,19.10
2009,07,22,09,10,19.10
2009,07,22,09,11,19.10
2009,07,22,09,12,19.10
2009,07,22,09,13,19.20
2009,07,22,09,14,19.20
2009,07,22,09,15,19.20
2009,07,22,09,16,19.20
2009,07,22,09,17,19.20
2009,07,22,09,18,19.20
2009,07,22,09,19,19.30
2009,07,22,09,20,19.30
2009,07,22,09,21,19.30
2009,07,22,09,22,19.30
2009,07,22,09,23,19.30
2009,07,22,09,24,19.30
2009,07,22,09,25,19.30
2009,07,22,09,26,19.40
2009,07,22,09,27,19.40
2009,07,22,09,28,19.50
2009,07,22,09,29,19.60
2009,07,22,09,30,19.60
2009,07,22,09,31,19.70
2009,07,22,09,32,19.80
2009,07,22,09,33,19.90
2009,07,22,09,34,19.90
2009,07,22,09,35,20.00
2009,07,22,09,36,20.00
2009,07,22,09,37,20.10
2009,07,22,09,38,20.10
2009,07,22,09,39,20.10
2009,07,22,09,40,20.10
2009,07,22,09,41,20.10
2009,07,22,09,42,20.10
2009,07,22,09,43,20.10
2009,07,22,09,44,20.00
2009,07,22,09,45,20.00
2009,07,22,09,46,19.90
2009,07,22,09,47,19.90
2009,07,22,09,48,19.90
2009,07,22,09,49,19.90
2009,07,22,09,50,20.00
2009,07,22,09,51,20.00
2009,07,22,09,52,20.10
2009,07,22,09,53,20.20
2009,07,22,09,54,20.30
2009,07,22,09,55,20.30
2009,07,22,09,56,20.30
2009,07,22,09,57,20.30
2009,07,22,09,58,20.30
2009,07,22,09,59,20.30
2009,07,22,10,00,20.40
2009,07,22,10,01,20.40
2009,07,22,10,02,20.30
2009,07,22,10,03,20.20
2009,07,22,10,04,20.00
2009,07,22,10,05,19.90
2009,07,22,10,06,19.90
2009,07,22,10,07,19.80
2009,07,22,10,08,19.70
2009,07,22,10,09,19.70
2009,07,22,10,10,19.60
2009,07,22,10,11,19.60
2009,07,22,10,12,19.60
2009,07,22,10,13,19.60
2009,07,22,10,14,19.60
2009,07,22,10,15,19.70
2009,07,22,10,16,19.80
2009,07,22,10,17,19.80
2009,07,22,10,18,19.90
2009,07,22,10,19,20.00
2009,07,22,10,20,20.00
2009,07,22,10,21,20.00
2009,07,22,10,22,20.00
2009,07,22,10,23,20.10
2009,07,22,10,24,20.00
2009,07,22,10,25,20.00
2009,07,22,10,26,19.90
2009,07,22,10,27,19.80
2009,07,22,10,28,19.70
2009,07,22,10,29,19.60
2009,07,22,10,30,19.50
2009,07,22,10,31,19.40
2009,07,22,10,32,19.30
2009,07,22,10,33,19.30
2009,07,22,10,34,19.20
2009,07,22,10,35,19.10
2009,07,22,10,36,19.10
2009,07,22,10,37,19.10
2009,07,22,10,38,19.10
2009,07,22,10,39,19.10
2009,07,22,10,40,19.20
2009,07,22,10,41,19.30
2009,07,22,10,42,19.30
2009,07,22,10,43,19.40
2009,07,22,10,44,19.40
2009,07,22,10,45,19.40
2009,07,22,10,46,19.30
2009,07,22,10,47,19.30
2009,07,22,10,48,19.30
2009,07,22,10,49,19.30
2009,07,22,10,50,19.30
2009,07,22,10,51,19.30
2009,07,22,10,52,19.30
2009,07,22,10,53,19.30
2009,07,22,10,54,19.40
2009,07,22,10,55,19.40
2009,07,22,10,56,19.40
2009,07,22,10,57,19.50
2009,07,22,10,58,19.60
2009,07,22,10,59,19.60
2009,07,22,11,00,19.60
2009,07,22,11,01,19.70
2009,07,22,11,02,19.70
2009,07,22,11,03,19.70
2009,07,22,11,04,19.70
2009,07,22,11,05,19.80
2009,07,22,11,06,19.80
2009,07,22,11,07,19.90
2009,07,22,11,08,19.90
2009,07,22,11,09,20.00
2009,07,22,11,10,20.00
2009,07,22,11,11,20.00
2009,07,22,11,12,20.00
2009,07,22,11,13,20.10
2009,07,22,11,14,20.10
2009,07,22,11,15,20.10
2009,07,22,11,16,20.10
2009,07,22,11,17,20.10
2009,07,22,11,18,20.00
2009,07,22,11,19,20.00
2009,07,22,11,20,19.90
2009,07,22,11,21,19.90
2009,07,22,11,22,19.80
2009,07,22,11,23,19.90
2009,07,22,11,24,19.90
2009,07,22,11,25,19.90
2009,07,22,11,26,20.00
2009,07,22,11,27,20.00
2009,07,22,11,28,20.10
2009,07,22,11,29,20.20
2009,07,22,11,30,20.20
2009,07,22,11,31,20.30
2009,07,22,11,32,20.30
2009,07,22,11,33,20.30
2009,07,22,11,34,20.40
2009,07,22,11,35,20.40
2009,07,22,11,36,20.40
2009,07,22,11,37,20.40
2009,07,22,11,38,20.50
2009,07,22,11,39,20.50
2009,07,22,11,40,20.60
2009,07,22,11,41,20.60
2009,07,22,11,42,20.60
2009,07,22,11,43,20.70
2009,07,22,11,44,20.70
2009,07,22,11,45,20.70
2009,07,22,11,46,20.80
2009,07,22,11,47,20.80
2009,07,22,11,48,20.80
2009,07,22,11,49,20.80
2009,07,22,11,50,20.80
2009,07,22,11,51,20.80
2009,07,22,11,52,20.80
2009,07,22,11,53,20.70
2009,07,22,11,54,20.70
2009,07,22,11,55,20.70
2009,07,22,11,56,20.60
2009,07,22,11,57,20.60
2009,07,22,11,58,20.70
2009,07,22,11,59,20.70
2009,07,22,12,00,20.70
2009,07,22,12,01,20.70
2009,07,22,12,02,20.70
2009,07,22,12,03,20.70
2009,07,22,12,04,20.70
2009,07,22,12,05,20.70
2009,07,22,12,06,20.70
2009,07,22,12,07,20.70
2009,07,22,12,08,20.70
2009,07,22,12,09,20.60
2009,07,22,12,10,20.60
2009,07,22,12,11,20.60
2009,07,22,12,12,20.50
2009,07,22,12,13,20.50
2009,07,22,12,14,20.50
2009,07,22,12,15,20.50
2009,07,22,12,16,20.60
2009,07,22,12,17,20.70
2009,07,22,12,18,20.80
2009,07,22,12,19,20.80
2009,07,22,12,20,20.90
2009,07,22,12,21,21.00
2009,07,22,12,22,21.10
2009,07,22,12,23,21.10
2009,07,22,12,24,21.10
2009,07,22,12,25,21.10
2009,07,22,12,26,21.10
2009,07,22,12,27,21.10
2009,07,22,12,28,21.10
2009,07,22,12,29,21.20
2009,07,22,12,30,21.20
2009,07,22,12,31,21.30
2009,07,22,12,32,21.30
2009,07,22,12,33,21.30
2009,07,22,12,34,21.30
2009,07,22,12,35,21.40
2009,07,22,12,36,21.40
2009,07,22,12,37,21.40
2009,07,22,12,38,21.50
2009,07,22,12,39,21.50
2009,07,22,12,40,21.50
2009,07,22,12,41,21.50
2009,07,22,12,42,21.50
2009,07,22,12,43,21.40
2009,07,22,12,44,21.40
2009,07,22,12,45,21.30
2009,07,22,12,46,21.20
2009,07,22,12,47,21.20
2009,07,22,12,48,21.20
2009,07,22,12,49,21.10
2009,07,22,12,50,21.10
2009,07,22,12,51,21.10
2009,07,22,12,52,21.10
2009,07,22,12,53,21.10
2009,07,22,12,54,21.10
2009,07,22,12,55,21.10
2009,07,22,12,56,21.20
2009,07,22,12,57,21.20
2009,07,22,12,58,21.20
2009,07,22,12,59,21.20
2009,07,22,13,00,21.20
2009,07,22,13,01,21.20
2009,07,22,13,02,21.10
2009,07,22,13,03,21.10
2009,07,22,13,04,21.10
2009,07,22,13,05,21.20
2009,07,22,13,06,21.20
2009,07,22,13,07,21.30
2009,07,22,13,08,21.40
2009,07,22,13,09,21.50
2009,07,22,13,10,21.70
2009,07,22,13,11,21.70
2009,07,22,13,12,21.70
2009,07,22,13,13,21.70
2009,07,22,13,14,21.70
2009,07,22,13,15,21.70
2009,07,22,13,16,21.70
2009,07,22,13,17,21.70
2009,07,22,13,18,21.70
2009,07,22,13,19,21.70
2009,07,22,13,20,21.60
2009,07,22,13,21,21.60
2009,07,22,13,22,21.60
2009,07,22,13,23,21.60
2009,07,22,13,24,21.50
2009,07,22,13,25,21.50
2009,07,22,13,26,21.50
2009,07,22,13,27,21.50
2009,07,22,13,28,21.50
2009,07,22,13,29,21.50
2009,07,22,13,30,21.50
2009,07,22,13,31,21.60
2009,07,22,13,32,21.50
2009,07,22,13,33,21.50
2009,07,22,13,34,21.50
2009,07,22,13,35,21.40
2009,07,22,13,36,21.40
2009,07,22,13,37,21.30
2009,07,22,13,38,21.30
2009,07,22,13,39,21.30
2009,07,22,13,40,21.40
2009,07,22,13,41,21.50
2009,07,22,13,42,21.60
2009,07,22,13,43,21.60
2009,07,22,13,44,21.70
2009,07,22,13,45,21.80
2009,07,22,13,46,21.90
2009,07,22,13,47,22.00
2009,07,22,13,48,22.10
2009,07,22,13,49,22.20
2009,07,22,13,50,22.30
2009,07,22,13,51,22.30
2009,07,22,13,52,22.40
2009,07,22,13,53,22.50
2009,07,22,13,54,22.60
2009,07,22,13,55,22.60
2009,07,22,13,56,22.70
2009,07,22,13,57,22.70
2009,07,22,13,58,22.70
2009,07,22,13,59,22.80
2009,07,22,14,00,22.80
2009,07,22,14,01,22.90
2009,07,22,14,02,22.90
2009,07,22,14,03,23.00
2009,07,22,14,04,23.10
2009,07,22,14,05,23.20
2009,07,22,14,06,23.30
2009,07,22,14,07,23.40
2009,07,22,14,08,23.60
2009,07,22,14,09,23.70
2009,07,22,14,10,23.80
2009,07,22,14,11,23.90
2009,07,22,14,12,24.00
2009,07,22,14,13,24.10
2009,07,22,14,14,24.20
2009,07,22,14,15,24.30
2009,07,22,14,16,24.50
2009,07,22,14,17,24.60
2009,07,22,14,18,24.60
2009,07,22,14,19,24.70
2009,07,22,14,20,24.70
2009,07,22,14,21,24.70
2009,07,22,14,22,24.60
2009,07,22,14,23,24.60
2009,07,22,14,24,24.50
2009,07,22,14,25,24.40
2009,07,22,14,26,24.30
2009,07,22,14,27,24.30
2009,07,22,14,28,24.20
2009,07,22,14,29,24.20
2009,07,22,14,30,24.20
2009,07,22,14,31,24.20
2009,07,22,14,32,24.20
2009,07,22,14,33,24.10
2009,07,22,14,34,24.10
2009,07,22,14,35,24.00
2009,07,22,14,36,23.90
2009,07,22,14,37,23.80
2009,07,22,14,38,23.80
2009,07,22,14,39,23.80
2009,07,22,14,40,23.70
2009,07,22,14,41,23.70
2009,07,22,14,42,23.60
2009,07,22,14,43,23.60
2009,07,22,14,44,23.50
2009,07,22,14,45,23.40
2009,07,22,14,46,23.40
2009,07,22,14,47,23.40
2009,07,22,14,48,23.50
2009,07,22,14,49,23.50
2009,07,22,14,50,23.60
2009,07,22,14,51,23.60
2009,07,22,14,52,23.70
2009,07,22,14,53,23.70
2009,07,22,14,54,23.70
2009,07,22,14,55,23.70
2009,07,22,14,56,23.80
2009,07,22,14,57,23.80
2009,07,22,14,58,23.80
2009,07,22,14,59,23.80
2009,07,22,15,00,23.80
2009,07,22,15,01,23.80
2009,07,22,15,02,23.80
2009,07,22,15,03,23.80
2009,07,22,15,04,23.90
2009,07,22,15,05,23.90
2009,07,22,15,06,24.00
2009,07,22,15,07,23.90
2009,07,22,15,08,23.90
2009,07,22,15,09,23.90
2009,07,22,15,10,24.00
2009,07,22,15,11,23.90
2009,07,22,15,12,24.00
2009,07,22,15,13,24.00
2009,07,22,15,14,24.10
2009,07,22,15,15,24.20
2009,07,22,15,16,24.30
2009,07,22,15,17,24.30
2009,07,22,15,18,24.30
2009,07,22,15,19,24.30
2009,07,22,15,20,24.30
2009,07,22,15,21,24.30
2009,07,22,15,22,24.30
2009,07,22,15,23,24.40
2009,07,22,15,24,24.40
2009,07,22,15,25,24.40
2009,07,22,15,26,24.40
2009,07,22,15,27,24.40
2009,07,22,15,28,24.40
2009,07,22,15,29,24.40
2009,07,22,15,30,24.30
2009,07,22,15,31,24.20
2009,07,22,15,32,24.10
2009,07,22,15,33,24.10
2009,07,22,15,34,24.00
2009,07,22,15,35,24.00
2009,07,22,15,36,24.10
2009,07,22,15,37,24.10
2009,07,22,15,38,24.20
2009,07,22,15,39,24.30
2009,07,22,15,40,24.40
2009,07,22,15,41,24.60
2009,07,22,15,42,24.70
2009,07,22,15,43,24.90
2009,07,22,15,44,25.00
2009,07,22,15,45,25.10
2009,07,22,15,46,25.10
2009,07,22,15,47,25.20
2009,07,22,15,48,25.30
2009,07,22,15,49,25.30
2009,07,22,15,50,25.30
2009,07,22,15,51,25.30
2009,07,22,15,52,25.20
2009,07,22,15,53,25.20
2009,07,22,15,54,25.20
2009,07,22,15,55,25.20
2009,07,22,15,56,25.20
2009,07,22,15,57,25.20
2009,07,22,15,58,25.20
2009,07,22,15,59,25.30
2009,07,22,16,00,25.30
2009,07,22,16,01,25.30
2009,07,22,16,02,25.30
2009,07,22,16,03,25.30
2009,07,22,16,04,25.20
2009,07,22,16,05,25.10
2009,07,22,16,06,25.00
2009,07,22,16,07,24.90
2009,07,22,16,08,24.90
2009,07,22,16,09,24.90
2009,07,22,16,10,24.90
2009,07,22,16,11,24.80
2009,07,22,16,12,24.80
2009,07,22,16,13,24.80
2009,07,22,16,14,24.90
2009,07,22,16,15,24.90
2009,07,22,16,16,24.90
2009,07,22,16,17,24.90
2009,07,22,16,18,24.90
2009,07,22,16,19,25.00
2009,07,22,16,20,25.00
2009,07,22,16,21,25.00
2009,07,22,16,22,25.00
2009,07,22,16,23,24.80
2009,07,22,16,24,24.70
2009,07,22,16,25,24.60
2009,07,22,16,26,24.60
2009,07,22,16,27,24.50
2009,07,22,16,28,24.50
2009,07,22,16,29,24.60
2009,07,22,16,30,24.60
2009,07,22,16,31,24.70
2009,07,22,16,32,24.80
2009,07,22,16,33,24.90
2009,07,22,16,34,25.10
2009,07,22,16,35,25.20
2009,07,22,16,36,25.30
2009,07,22,16,37,25.30
2009,07,22,16,38,25.30
2009,07,22,16,39,25.30
2009,07,22,16,40,25.30
2009,07,22,16,41,25.30
2009,07,22,16,42,25.30
2009,07,22,16,43,25.30
2009,07,22,16,44,25.30
2009,07,22,16,45,25.30
2009,07,22,16,46,25.30
2009,07,22,16,47,25.30
2009,07,22,16,48,25.40
2009,07,22,16,49,25.50
2009,07,22,16,50,25.60
2009,07,22,16,51,25.60
2009,07,22,16,52,25.50
2009,07,22,16,53,25.40
2009,07,22,16,54,25.40
2009,07,22,16,55,25.30
2009,07,22,16,56,25.30
2009,07,22,16,57,25.30
2009,07,22,16,58,25.30
2009,07,22,16,59,25.30
2009,07,22,17,00,25.20
2009,07,22,17,01,25.10
2009,07,22,17,02,25.10
2009,07,22,17,03,25.20
2009,07,22,17,04,25.20
2009,07,22,17,05,25.20
2009,07,22,17,06,25.20
2009,07,22,17,07,25.10
2009,07,22,17,08,25.00
2009,07,22,17,09,25.00
2009,07,22,17,10,24.90
2009,07,22,17,11,24.90
2009,07,22,17,12,24.90
2009,07,22,17,13,24.80
2009,07,22,17,14,24.80
2009,07,22,17,15,24.80
2009,07,22,17,16,24.70
2009,07,22,17,17,24.80
2009,07,22,17,18,24.80
2009,07,22,17,19,24.80